sat.trackr.live / text

‹ back to catalog

JILIN-1 GAOFEN 03D09

NORAD 53445 · 2022-098B

PAYLOAD ACTIVE UNKNOWN

§ Identity

Operator
Country
PRC
Launch date
2022-08-10
Launch site
TAISC
Launch vehicle
Mass (kg)
RCS (m²)

External: N2YO · Heavens-Above · Gunter

§ Orbital elements

Epoch: 2026-09-20T23:02:22.285824Z

Period
90.93 min
Inclination
97.5691°
Eccentricity
0.0001785
Mean motion
15.83688991 rev/d
Perigee alt
318.8 km
Apogee alt
321.2 km
Semi-major
6,698.2 km
B*
6.1812e-4
RAAN
41.9985°
Arg perigee
293.1919°
Mean anomaly
66.9162°
Rev number
22,969

§ Raw data

JILIN-1 GAOFEN 03D091 53445U 22098B   26263.95998016  .00137254  00000+0  61812-3 0  99902 53445  97.5691  41.9985 0001785 293.1919  66.9162 15.83688991229697

JSON: /api/v1/satellites/53445 · /tle

For live sub-satellite position, see the globe view (requires WebGL).

§ Visibility from observer

Set your observer location to see the next 7 days of passes ≥ 10°. The values pass through the URL so the page stays shareable.

No JS? Fill the form by hand. The geolocation button needs JavaScript.